Location: *
(40.9167°N, 9.5000°E)
Time: 08:28:48
(UTC+00:00)

BREEZE M DEB (TANK) - Pass Details

Date: 09 April 2020
Orbit: 303 x 11878 km, 49.5° (Epoch: 03 June)

Event Time Altitude Azimuth Distance (km) Brightness Sun altitude
Rises 19:15:14 0° 229° (SW) 2,100 5.6 -15.1°
Reaches altitude 10° 19:16:38 10° 226° (SW) 1,422 4.7 -15.3°
Maximum altitude 19:19:20 70° 141° (SE) 618 2.3 -15.8°
Drops below altitude 10° 19:26:02 10° 59° (ENE) 3,456 6.0 -16.9°
Sets 19:31:22 0° 59° (ENE) 5,805 7.2 -17.8°
